sat.trackr.live / text

‹ back to catalog

STARLINK-36894

NORAD 67972 · 2026-038M

PAYLOAD ACTIVE UNKNOWN

§ Identity

Operator
Country
US
Launch date
2026-02-25
Launch site
AFWTR
Launch vehicle
Mass (kg)
RCS (m²)

Purposes: comms

External: N2YO · Heavens-Above · Gunter

§ Orbital elements

Epoch: 2026-05-24T23:55:12.783936Z

Period
93.91 min
Inclination
97.2836°
Eccentricity
0.0001786
Mean motion
15.33447582 rev/d
Perigee alt
464.3 km
Apogee alt
466.8 km
Semi-major
6,843.7 km
B*
5.9987e-4
RAAN
155.0307°
Arg perigee
96.3132°
Mean anomaly
263.8315°
Rev number
1,493

§ Raw data

STARLINK-368941 67972U 26038M   26144.99667574  .00019343  00000+0  59987-3 0  99902 67972  97.2836 155.0307 0001786  96.3132 263.8315 15.33447582 14932

JSON: /api/v1/satellites/67972 · /tle

For live sub-satellite position, see the globe view (requires WebGL).

§ Visibility from observer

Set your observer location to see the next 7 days of passes ≥ 10°. The values pass through the URL so the page stays shareable.

No JS? Fill the form by hand. The geolocation button needs JavaScript.